[[{"header":{"parameterUnit":"m.s-1","parameterCategory":2,"la1":30.2991,"la2":30.254,"lo1":-89.0895,"lo2":-89.0444,"dy":0.0017,"dx":0.0017,"nx":28,"ny":28,"refTime":"2024-04-27T09:00:00:Z","depth":"0","parameterNumber":2,"parameterNumberName":"U-component_of_CURRENTS"},"data":[0,0,0,0,0,0,0,0,0,0,0,0,0,0,0,0,0,0,0,0,0,0,0,0,0,0,0,0,0,0,0,0,0,0,0,0,0,0,0,0,0,0,0,0,0,0,0,0,0,0,0,0,0,0,0,0,0,0,0.2528,0.2529,0,0.2529,0.2529,0.2528,0.2505,0.2505,0.2504,0.2504,0.2434,0.2433,0.2431,0,0,0,0,0,0,0,0,0,0,0,0,0,0.2509,0.2509,0.2528,0.2529,0.2529,0.2529,0.2529,0.2528,0.2505,0.2505,0.2504,0.2504,0.2435,0.2433,0.2431,0,0,0,0,0,0,0,0,0,0,0,0,0,0.2509,0.2509,0.2528,0.2521,0.2521,0.2529,0.2529,0.2528,0.2505,0.2505,0.2504,0.2504,0.2436,0.2433,0.2431,0.242,0,0,0.2423,0.2422,0,0,0,0,0,0,0,0,0.2509,0.2509,0.2522,0.2522,0.2522,0.2521,0.2496,0.249,0.2505,0.2506,0.2504,0.2504,0.246,0.2456,0.245,0.2417,0.2414,0.2423,0.2421,0.242,0.2419,0,0,0,0,0,0,0,0.2509,0.2509,0.2524,0.2522,0.2522,0.2519,0.2518,0.2495,0.2479,0.2506,0.2505,0.2513,0.2459,0.2453,0.2448,0.2413,0.2423,0.2421,0.2419,0.2418,0.2404,0.2405,0,0,0,0,0,0,0.2519,0.2509,0.2524,0.2524,0.252,0.252,0.2519,0.2517,0.2481,0.2477,0.2513,0.2512,0.2457,0.2451,0.2446,0.2446,0.242,0.2418,0.2416,0.2403,0.2404,0.2406,0,0,0,0,0,0,0.2519,0.252,0.2524,0.2521,0.2522,0.2521,0.2519,0.2518,0.252,0.2489,0.2482,0.252,0.2457,0.2449,0.2439,0.2442,0.2417,0.2414,0.2402,0.2403,0.2405,0.2437,0,0,0,0,0,0,0.2518,0.252,0.2518,0.2522,0.2523,0.2538,0.252,0.2518,0.2528,0.2526,0.2492,0.2485,0.2456,0.2443,0.2436,0.2439,0.2412,0.24,0.2402,0.2404,0.2434,0.2439,0.2444,0,0,0,0,0,0.2517,0.252,0.2518,0.252,0.2522,0.2539,0.2539,0.2534,0.2529,0.2534,0.2514,0.2486,0.2452,0.2442,0.2434,0.2435,0.2399,0.2402,0.2404,0.2432,0.2438,0.2444,0,0,0,0,0,0,0.2497,0.2519,0.2516,0.2521,0.2535,0.2538,0.2543,0.2543,0.2533,0.2529,0.2495,0.2487,0.2483,0.2461,0.2451,0.2442,0.2423,0.2424,0.2447,0.2453,0.2457,0.2454,0.241,0,0,0,0,0,0.2497,0.2512,0.2526,0.253,0.2539,0.2543,0.2549,0.255,0.2546,0.2542,0.2518,0.2498,0.2487,0.2472,0.2458,0.2446,0.2449,0.2446,0.2451,0.2455,0.245,0.2477,0.2484,0.2414,0.2414,0.2414,0,0,0.2491,0.2505,0.2511,0.2529,0.2535,0.2543,0.2544,0.2561,0.256,0.2535,0.252,0.2515,0.2492,0.2483,0.2478,0.2462,0.248,0.2458,0.2461,0.2454,0.2481,0.2487,0.2493,0.2416,0.2416,0.2415,0,0,0.2498,0.2499,0.2519,0.2529,0.2553,0.2553,0.2563,0.2573,0.257,0.2566,0.2553,0.2555,0.2524,0.2512,0.2501,0.2525,0.2512,0.2524,0.253,0.2557,0.2563,0.2568,0.2593,0.2599,0.2516,0.2516,0.2517,0,0.2496,0.2505,0.2526,0.2542,0.2544,0.2559,0.2566,0.2568,0.257,0.257,0.2566,0.2554,0.2536,0.253,0.2539,0.2533,0.2548,0.2506,0.2563,0.2568,0.2572,0.2596,0.2603,0.2518,0.2518,0.2518,0.2518,0,0.2516,0.2516,0.2527,0.2546,0.2553,0.2564,0.2571,0.2577,0.2577,0.2578,0.2586,0.2576,0.2569,0.2569,0.2554,0.2577,0.2579,0.2573,0.2546,0.2581,0.2604,0.2611,0.2521,0.252,0.252,0.2519,0,0,0.2526,0.2542,0.2542,0.2529,0.2552,0.255,0.2562,0.2571,0.2571,0.2583,0.2586,0.2585,0.2596,0.2586,0.2582,0.2597,0.2647,0.2597,0.2597,0.2616,0.2713,0.2712,0.2719,0.2654,0.2656,0.2656,0.272,0,0.2533,0.2541,0.2556,0.254,0.253,0.2545,0.2546,0.2556,0.2567,0.2574,0.259,0.2592,0.2597,0.2598,0.2622,0.2641,0.2665,0.263,0.2679,0.268,0.2671,0.2727,0.2626,0.2674,0.2726,0.2727,0.2728,0,0.2543,0.2535,0.2528,0.2506,0.2507,0.2506,0.2503,0.2512,0.2542,0.2555,0.2584,0.2598,0.263,0.2627,0.269,0.2671,0.2696,0.2711,0.2713,0.2702,0.2692,0.2645,0.2684,0.2609,0.2738,0.2738,0.2737,0,0.2507,0.2509,0.2491,0.2484,0.2476,0.2476,0.2481,0.2505,0.251,0.2551,0.2569,0.2612,0.2639,0.2681,0.273,0.2714,0.2801,0.2781,0.2803,0.2803,0.272,0.2711,0.2684,0.2827,0.2827,0.2826,0.2826,0,0.2492,0.2472,0.2467,0.2445,0.2419,0.2435,0.2427,0.245,0.2485,0.2501,0.2558,0.2586,0.2657,0.2715,0.2746,0.281,0.2824,0.2817,0.2825,0.2731,0.2722,0.2654,0.2587,0.2829,0.2828,0.2828,0.2827,0,0.2453,0.2458,0.242,0.2402,0.2397,0.2377,0.239,0.2389,0.2441,0.2471,0.2488,0.2581,0.267,0.2738,0.2816,0.2835,0.2786,0.2899,0.2787,0.2781,0.2718,0.2655,0.2474,0.2396,0.2928,0.2928,0.2929,0,0.244,0.2413,0.2376,0.2352,0.2345,0.2326,0.232,0.2359,0.2374,0.2466,0.2481,0.2585,0.2643,0.2773,0.2836,0.2905,0.2788,0.2849,0.2795,0.2712,0.2648,0.2475,0.241,0.27,0.2699,0.2698,0.2697,0,0.2385,0.2373,0.2336,0.2298,0.2276,0.2247,0.2253,0.2251,0.2316,0.2357,0.2427,0.248,0.2633,0.2676,0.2792,0.2819,0.2668,0.2826,0.2761,0.2488,0.2272,0.2203,0.2664,0.2685,0.2687,0.2687,0.2688,0.2688,0.2343,0.231,0.227,0.2221,0.2201,0.2165,0.2105,0.2139,0.2149,0.2172,0.2322,0.2346,0.2499,0.265,0.2676,0.2664,0.2596,0.2592,0.2532,0.2373,0.2253,0.27,0.2719,0.272,0.2721,0.2722,0.2723,0,0.2266,0.2237,0.2199,0.2128,0.2065,0.2083,0.2046,0.1971,0.1942,0.2027,0.2078,0.2191,0.2266,0.2374,0.2466,0.2386,0.2242,0.2308,0.2035,0.1998,0.2431,0.2382,0.2303,0.2303,0.2303,0.2303,0.2304,0.2304,0.2225,0.2152,0.2125,0.1994,0.1947,0.1801,0.1743,0.1683,0.1687,0.1687,0.1724,0.1834,0.202,0.213,0.2125,0.2089,0.1887,0.1764,0.1753,0.2072,0.2093,0.2113,0.2054,0.1907,0.1907,0.1236,0.123,0.1226]},{"header":{"parameterUnit":"m.s-1","parameterCategory":2,"la1":30.2991,"la2":30.254,"lo1":-89.0895,"lo2":-89.0444,"dy":0.0017,"dx":0.0017,"nx":28,"ny":28,"refTime":"2024-04-27T09:00:00:Z","depth":"0","parameterNumber":3,"parameterNumberName":"V-component_of_CURRENTS"},"data":[0,0,0,0,0,0,0,0,0,0,0,0,0,0,0,0,0,0,0,0,0,0,0,0,0,0,0,0,0,0,0,0,0,0,0,0,0,0,0,0,0,0,0,0,0,0,0,0,0,0,0,0,0,0,0,0,0,0,0.011,0.0109,0,0.0058,0.0057,0.0056,0.0022,0.0022,0.0022,0.0022,-0.0056,-0.0058,-0.006,0,0,0,0,0,0,0,0,0,0,0,0,0,0.0132,0.0132,0.011,0.0109,0.0109,0.0058,0.0057,0.0056,0.0022,0.0022,0.0022,0.0022,-0.0056,-0.0058,-0.006,0,0,0,0,0,0,0,0,0,0,0,0,0,0.0104,0.0132,0.011,0.0087,0.0085,0.0058,0.0057,0.0056,0.0022,0.0022,0.0022,0.0022,-0.0055,-0.0058,-0.0061,-0.0078,0,0,-0.007,-0.0071,0,0,0,0,0,0,0,0,0.0106,0.0103,0.0091,0.0089,0.0086,0.0048,0.0036,0.001,0.0022,0.0044,0.0022,0.0022,-0.0023,-0.0028,-0.004,-0.0082,-0.0086,-0.007,-0.0072,-0.0074,-0.0074,0,0,0,0,0,0,0,0.0108,0.0105,0.0087,0.0091,0.0087,0.0063,0.006,0.0031,0.001,0.0042,0.004,0.0037,-0.0024,-0.0037,-0.0042,-0.0087,-0.007,-0.0073,-0.0075,-0.0076,-0.0147,-0.0147,0,0,0,0,0,0,0.0121,0.0107,0.0089,0.0086,0.0098,0.0063,0.0059,0.0059,0.0011,0.0004,0.0037,0.0036,-0.0032,-0.0039,-0.0045,-0.0056,-0.0074,-0.0076,-0.0078,-0.0147,-0.0147,-0.0147,0,0,0,0,0,0,0.0121,0.012,0.0091,0.0096,0.0091,0.0064,0.0063,0.0058,0.0049,0.0008,0.0,0.0035,-0.0032,-0.0041,-0.0067,-0.006,-0.0078,-0.0081,-0.0147,-0.0147,-0.0147,-0.0087,0,0,0,0,0,0,0.0122,0.012,0.0121,0.0098,0.0092,0.0084,0.0063,0.0057,0.0048,0.0046,0.0003,-0.0004,-0.0033,-0.0062,-0.007,-0.0065,-0.0083,-0.0147,-0.0147,-0.0147,-0.0089,-0.0085,-0.0081,0,0,0,0,0,0.0123,0.013,0.0121,0.0119,0.0095,0.0084,0.0079,0.0057,0.0048,0.0048,0.0017,-0.0003,-0.0068,-0.0065,-0.0074,-0.0069,-0.0146,-0.0147,-0.0147,-0.009,-0.0085,-0.0081,0,0,0,0,0,0,0.0134,0.0127,0.0116,0.0119,0.0105,0.0079,0.0078,0.0063,0.0038,0.0036,-0.0004,-0.0014,-0.0035,-0.0062,-0.0057,-0.0091,-0.011,-0.0112,-0.0064,-0.006,-0.0057,-0.0036,-0.0086,0,0,0,0,0,0.0139,0.0146,0.0129,0.0129,0.0128,0.0103,0.0095,0.0083,0.006,0.0049,0.0019,-0.0014,-0.0044,-0.0058,-0.0089,-0.0107,-0.0123,-0.0111,-0.0107,-0.0103,-0.0094,-0.0113,-0.0109,-0.0147,-0.0147,-0.0147,0,0,0.0143,0.014,0.0141,0.0133,0.0121,0.0124,0.0098,0.0095,0.0093,0.0044,0.0031,-0.0003,-0.0046,-0.0066,-0.0078,-0.0086,-0.0102,-0.0104,-0.01,-0.0092,-0.0112,-0.0108,-0.0105,-0.0147,-0.0147,-0.0147,0,0,0.0165,0.0153,0.0171,0.0164,0.0156,0.0141,0.0144,0.0123,0.0111,0.0093,0.0058,0.0033,-0.0014,-0.0039,-0.006,-0.0055,-0.0082,-0.0068,-0.0031,-0.005,-0.0046,-0.0044,-0.0056,-0.0055,-0.0065,-0.0065,-0.0065,0,0.0171,0.0185,0.0172,0.0186,0.0182,0.0154,0.0167,0.0151,0.0122,0.0116,0.0098,0.0038,0.0001,-0.002,-0.002,-0.0044,-0.0058,-0.0042,-0.0043,-0.0041,-0.0039,-0.0052,-0.0052,-0.0062,-0.0062,-0.0063,-0.0063,0,0.0211,0.0214,0.0224,0.0232,0.0226,0.0231,0.0211,0.0204,0.0184,0.0166,0.0142,0.0092,0.006,0.004,0.001,0.0003,-0.0012,-0.0035,-0.0048,-0.0031,-0.0047,-0.0047,-0.0058,-0.0059,-0.006,-0.0061,0,0,0.0249,0.0253,0.0256,0.0261,0.025,0.0251,0.0251,0.0243,0.0251,0.0213,0.0217,0.016,0.0137,0.0112,0.0071,0.0052,0.0048,0.0019,0.0016,0.0017,0.0014,0.0024,0.0024,0.0026,0.0026,0.0026,-0.0001,0,0.0284,0.0317,0.0307,0.0325,0.0335,0.0309,0.0313,0.0301,0.0283,0.0278,0.023,0.0212,0.0162,0.0149,0.0124,0.0067,0.0049,0.0058,-0.0013,-0.0015,0.0001,0.0024,0.0106,0.0091,-0.0001,-0.0001,-0.0002,0,0.0338,0.0343,0.0374,0.0371,0.0375,0.0382,0.0385,0.0385,0.0369,0.0357,0.0332,0.0292,0.0258,0.0212,0.0139,0.0148,0.0089,0.0043,0.0041,0.0031,-0.0005,0.0056,0.0093,0.0039,-0.0003,-0.0002,-0.0002,0,0.0383,0.0394,0.0418,0.0417,0.0411,0.042,0.0419,0.0413,0.0425,0.0409,0.0419,0.0363,0.0346,0.0268,0.0174,0.0156,0.0098,0.0057,0.0012,0.0011,0.0059,0.0063,0.0047,0.0009,0.0009,0.0009,0.0009,0,0.043,0.0446,0.0442,0.045,0.0478,0.0463,0.0495,0.0489,0.0496,0.0528,0.0465,0.0482,0.0359,0.0308,0.0208,0.0123,0.0124,0.0031,0.001,0.0081,0.0087,0.0022,-0.0028,0.0008,0.0008,0.0008,0.0008,0,0.0476,0.0479,0.0496,0.0493,0.0501,0.052,0.0543,0.0569,0.0572,0.0613,0.0612,0.0574,0.0518,0.0397,0.0278,0.0182,0.0064,0.005,0.0146,0.0137,0.0038,-0.0011,-0.006,-0.0098,-0.0002,-0.0002,-0.0002,0,0.0507,0.0521,0.0529,0.0545,0.0544,0.0572,0.0599,0.0607,0.0641,0.068,0.0708,0.0671,0.0665,0.0502,0.0347,0.0193,0.0094,0.0133,0.0106,0.0059,-0.0013,-0.0051,-0.0082,0.019,0.0192,0.0194,0.0195,0,0.0538,0.0541,0.0549,0.0587,0.0615,0.0649,0.0689,0.0729,0.0758,0.0803,0.0864,0.0868,0.0751,0.0655,0.0442,0.0322,0.0123,0.0155,0.0087,0.0128,0.0106,0.0053,0.0176,0.0207,0.0206,0.0205,0.0204,0.0204,0.0558,0.057,0.0588,0.0625,0.0663,0.072,0.0752,0.0814,0.0887,0.0966,0.0984,0.1028,0.0924,0.0668,0.0491,0.026,0.0202,0.0183,0.0125,0.0088,0.0066,0.0217,0.0232,0.0231,0.023,0.0229,0.0228,0,0.058,0.0595,0.0626,0.0668,0.0715,0.0733,0.0808,0.0844,0.0935,0.1057,0.1122,0.1165,0.1003,0.0788,0.0511,0.0297,0.0189,0.0164,0.014,0.0102,0.0238,0.0262,0.0309,0.0309,0.0309,0.0309,0.0309,0.0309,0.0589,0.0621,0.0635,0.0704,0.0739,0.0789,0.0829,0.0899,0.0987,0.1135,0.1237,0.131,0.1273,0.0753,0.04,0.0269,0.0104,0.0075,-0.0059,0.0055,0.0053,0.005,0.0063,0.0067,0.0067,-0.013,-0.0132,-0.0133]}],[{"header":{"parameterUnit":"m.s-1","parameterCategory":2,"la1":30.2991,"la2":30.254,"lo1":-89.0895,"lo2":-89.0444,"dy":0.0017,"dx":0.0017,"nx":28,"ny":28,"refTime":"2024-04-27T09:00:00:Z","depth":"2","parameterNumber":2,"parameterNumberName":"U-component_of_CURRENTS"},"data":[0,0,0,0,0,0,0,0,0,0,0,0,0,0,0,0,0,0,0,0,0,0,0,0,0,0,0,0,0,0,0,0,0,0,0,0,0,0,0,0,0,0,0,0,0,0,0,0,0,0,0,0,0,0,0,0,0,0,0.2543,0.2544,0,0.2543,0.2542,0.2542,0.2519,0.2519,0.2519,0.2519,0.2452,0.2451,0.2449,0,0,0,0,0,0,0,0,0,0,0,0,0,0.2523,0.2523,0.2543,0.2544,0.2544,0.2543,0.2542,0.2542,0.2519,0.2519,0.2519,0.2519,0.2453,0.2451,0.2449,0,0,0,0,0,0,0,0,0,0,0,0,0,0.2523,0.2523,0.2543,0.2536,0.2536,0.2543,0.2542,0.2542,0.2519,0.2519,0.2519,0.2518,0.2453,0.2451,0.2449,0.2438,0,0,0.2441,0.244,0,0,0,0,0,0,0,0,0.2523,0.2523,0.2537,0.2537,0.2536,0.2535,0.2511,0.2505,0.2519,0.2521,0.2519,0.2518,0.2477,0.2473,0.2467,0.2435,0.2433,0.2441,0.244,0.2438,0.2438,0,0,0,0,0,0,0,0.2523,0.2523,0.2538,0.2537,0.2537,0.2533,0.2532,0.251,0.2495,0.252,0.252,0.2527,0.2476,0.247,0.2465,0.2432,0.2441,0.2439,0.2437,0.2436,0.2425,0.2426,0,0,0,0,0,0,0.2533,0.2523,0.2538,0.2539,0.2534,0.2533,0.2532,0.2532,0.2497,0.2493,0.2528,0.2526,0.2474,0.2468,0.2463,0.2464,0.2438,0.2436,0.2435,0.2424,0.2425,0.2426,0,0,0,0,0,0,0.2533,0.2534,0.2538,0.2535,0.2536,0.2535,0.2534,0.2532,0.2535,0.2504,0.2498,0.2534,0.2474,0.2466,0.2457,0.2461,0.2435,0.2433,0.2422,0.2424,0.2426,0.2457,0,0,0,0,0,0,0.2532,0.2534,0.2533,0.2536,0.2537,0.2552,0.2534,0.2532,0.2542,0.254,0.2507,0.2501,0.2473,0.2461,0.2454,0.2457,0.2431,0.2421,0.2423,0.2425,0.2455,0.246,0.2464,0,0,0,0,0,0.2531,0.2535,0.2533,0.2535,0.2537,0.2553,0.2553,0.2548,0.2543,0.2548,0.2529,0.2502,0.247,0.246,0.2452,0.2454,0.242,0.2423,0.2425,0.2452,0.2459,0.2464,0,0,0,0,0,0,0.2511,0.2533,0.2531,0.2536,0.2549,0.2551,0.2556,0.2557,0.2547,0.2544,0.2511,0.2503,0.25,0.2479,0.2468,0.2461,0.2443,0.2444,0.2466,0.2472,0.2476,0.2473,0.2429,0,0,0,0,0,0.2512,0.2528,0.2541,0.2545,0.2554,0.2557,0.2563,0.2564,0.256,0.2556,0.2534,0.2515,0.2504,0.249,0.2477,0.2466,0.2469,0.2467,0.2471,0.2475,0.247,0.2498,0.2504,0.2435,0.2435,0.2435,0,0,0.2505,0.252,0.2526,0.2545,0.2551,0.2558,0.2559,0.2575,0.2574,0.2549,0.2536,0.2532,0.2509,0.2501,0.2497,0.2481,0.25,0.2478,0.2482,0.2474,0.2501,0.2508,0.2514,0.2437,0.2436,0.2436,0,0,0.2511,0.2514,0.2534,0.2544,0.2568,0.2568,0.2578,0.2587,0.2584,0.2581,0.2568,0.2571,0.2542,0.2531,0.252,0.2545,0.2531,0.2544,0.255,0.2577,0.2583,0.2588,0.2612,0.2619,0.2537,0.2537,0.2537,0,0.251,0.2519,0.2541,0.2558,0.2559,0.2574,0.2581,0.2582,0.2585,0.2585,0.2581,0.2571,0.2554,0.2549,0.2558,0.2552,0.2568,0.2526,0.2583,0.2588,0.2592,0.2615,0.2622,0.2538,0.2538,0.2538,0.2538,0,0.2528,0.2529,0.2541,0.2561,0.2568,0.2578,0.2585,0.2592,0.2592,0.2593,0.2602,0.2593,0.2587,0.2588,0.2573,0.2597,0.2599,0.2593,0.2565,0.2601,0.2623,0.263,0.2541,0.254,0.254,0.2539,0,0,0.2539,0.2555,0.2556,0.2543,0.2567,0.2564,0.2577,0.2586,0.2587,0.2599,0.2602,0.2602,0.2614,0.2605,0.2601,0.2617,0.2666,0.2616,0.2617,0.2635,0.2731,0.2728,0.2735,0.2674,0.2675,0.2676,0.2737,0,0.2546,0.2555,0.257,0.2554,0.2544,0.2559,0.2561,0.2571,0.2583,0.259,0.2607,0.261,0.2615,0.2617,0.264,0.266,0.2684,0.2649,0.2698,0.2699,0.2688,0.2742,0.2461,0.2492,0.2744,0.2745,0.2746,0,0.2556,0.2549,0.2541,0.252,0.2521,0.2521,0.2519,0.2528,0.2559,0.2573,0.2602,0.2617,0.2648,0.2646,0.2709,0.269,0.2714,0.2729,0.2732,0.2719,0.2709,0.2496,0.2495,0.2757,0.2756,0.2755,0.2754,0,0.2521,0.2523,0.2505,0.2499,0.2491,0.2491,0.2497,0.2522,0.2528,0.2569,0.2587,0.2631,0.2658,0.2699,0.2748,0.2732,0.2818,0.2798,0.2819,0.2819,0.2582,0.2559,0.2844,0.2844,0.2844,0.2843,0.2843,0,0.2506,0.2486,0.2482,0.246,0.2435,0.2451,0.2445,0.2468,0.2504,0.252,0.2577,0.2606,0.2676,0.2733,0.2764,0.2826,0.284,0.2832,0.2839,0.2588,0.2567,0.2791,0.2784,0.2846,0.2845,0.2845,0.2844,0,0.2467,0.2472,0.2435,0.2418,0.2414,0.2394,0.2409,0.2409,0.2461,0.2491,0.2508,0.26,0.2688,0.2756,0.2833,0.2851,0.2898,0.2912,0.262,0.2593,0.2873,0.2867,0.2937,0.2937,0.2938,0.2938,0.2939,0,0.2454,0.2427,0.2391,0.2369,0.2362,0.2345,0.2339,0.2379,0.2394,0.2486,0.2501,0.2604,0.2656,0.2784,0.2799,0.2854,0.293,0.267,0.2592,0.2885,0.2885,0.2878,0.2872,0.2285,0.228,0.2276,0.2272,0,0.2399,0.2388,0.2352,0.2315,0.2295,0.2267,0.2274,0.2273,0.2337,0.2374,0.2442,0.2489,0.2598,0.2536,0.2632,0.263,0.2639,0.2593,0.2956,0.2329,0.2281,0.2279,0.2291,0.2235,0.2239,0.2242,0.2244,0.2245,0.2357,0.2325,0.2287,0.224,0.2221,0.2186,0.2128,0.2158,0.2163,0.2171,0.2301,0.2292,0.2339,0.2338,0.2299,0.2286,0.2481,0.2385,0.2391,0.2404,0.2341,0.23,0.2245,0.2248,0.2251,0.2254,0.2257,0,0.2272,0.2253,0.2217,0.2148,0.2083,0.2105,0.207,0.2003,0.1965,0.2021,0.2034,0.1906,0.1855,0.1925,0.1826,0.1877,0.179,0.1831,0.1669,0.1708,0.1743,0.1641,0.1361,0.1359,0.1356,0.1354,0,0,0.223,0.2155,0.2128,0.2004,0.1966,0.1848,0.1792,0.1741,0.1741,0.1694,0.1661,0.1735,0.1851,0.1568,0.1548,0.1436,0.1555,0.1379,0.2093,0.1939,0.197,0.2061,0.1951,0,0,0,0,0]},{"header":{"parameterUnit":"m.s-1","parameterCategory":2,"la1":30.2991,"la2":30.254,"lo1":-89.0895,"lo2":-89.0444,"dy":0.0017,"dx":0.0017,"nx":28,"ny":28,"refTime":"2024-04-27T09:00:00:Z","depth":"2","parameterNumber":3,"parameterNumberName":"V-component_of_CURRENTS"},"data":[0,0,0,0,0,0,0,0,0,0,0,0,0,0,0,0,0,0,0,0,0,0,0,0,0,0,0,0,0,0,0,0,0,0,0,0,0,0,0,0,0,0,0,0,0,0,0,0,0,0,0,0,0,0,0,0,0,0,0.0075,0.0074,0,0.0023,0.0022,0.0021,-0.0012,-0.0012,-0.0012,-0.0012,-0.009,-0.0092,-0.0094,0,0,0,0,0,0,0,0,0,0,0,0,0,0.0097,0.0097,0.0075,0.0074,0.0074,0.0023,0.0022,0.0021,-0.0012,-0.0012,-0.0012,-0.0012,-0.0089,-0.0091,-0.0094,0,0,0,0,0,0,0,0,0,0,0,0,0,0.0069,0.0097,0.0075,0.0052,0.005,0.0023,0.0022,0.0021,-0.0012,-0.0012,-0.0012,-0.0012,-0.0088,-0.0091,-0.0094,-0.0112,0,0,-0.0104,-0.0105,0,0,0,0,0,0,0,0,0.007,0.0068,0.0056,0.0054,0.0051,0.0013,0.0001,-0.0024,-0.0012,0.001,-0.0012,-0.0012,-0.0056,-0.0062,-0.0074,-0.0115,-0.0119,-0.0104,-0.0106,-0.0107,-0.0108,0,0,0,0,0,0,0,0.0072,0.007,0.0052,0.0056,0.0053,0.0028,0.0025,-0.0004,-0.0024,0.0008,0.0006,0.0003,-0.0058,-0.0071,-0.0076,-0.012,-0.0104,-0.0106,-0.0108,-0.0109,-0.0179,-0.0179,0,0,0,0,0,0,0.0085,0.0072,0.0054,0.0051,0.0063,0.0028,0.0024,0.0024,-0.0023,-0.003,0.0003,0.0001,-0.0066,-0.0072,-0.0079,-0.009,-0.0107,-0.011,-0.0111,-0.0179,-0.0179,-0.0179,0,0,0,0,0,0,0.0086,0.0084,0.0056,0.0061,0.0056,0.0029,0.0029,0.0023,0.0015,-0.0027,-0.0034,0.0001,-0.0066,-0.0075,-0.01,-0.0093,-0.0111,-0.0114,-0.0179,-0.0179,-0.0179,-0.012,0,0,0,0,0,0,0.0087,0.0085,0.0086,0.0062,0.0057,0.0049,0.0029,0.0022,0.0014,0.0011,-0.0031,-0.0038,-0.0067,-0.0096,-0.0103,-0.0098,-0.0116,-0.0179,-0.0179,-0.0179,-0.0122,-0.0118,-0.0114,0,0,0,0,0,0.0088,0.0095,0.0086,0.0084,0.006,0.005,0.0044,0.0023,0.0014,0.0014,-0.0017,-0.0037,-0.0102,-0.0098,-0.0107,-0.0102,-0.0179,-0.0179,-0.0179,-0.0123,-0.0118,-0.0114,0,0,0,0,0,0,0.0099,0.0092,0.0082,0.0085,0.0071,0.0045,0.0043,0.0028,0.0004,0.0002,-0.0038,-0.0048,-0.0069,-0.0095,-0.009,-0.0124,-0.0143,-0.0145,-0.0098,-0.0094,-0.009,-0.007,-0.0119,0,0,0,0,0,0.0104,0.0112,0.0095,0.0096,0.0094,0.0069,0.0061,0.0049,0.0026,0.0015,-0.0014,-0.0048,-0.0077,-0.0092,-0.0122,-0.014,-0.0156,-0.0143,-0.014,-0.0136,-0.0127,-0.0146,-0.0143,-0.0179,-0.0179,-0.0179,0,0,0.0108,0.0105,0.0107,0.0099,0.0088,0.009,0.0064,0.0061,0.0058,0.001,-0.0003,-0.0036,-0.008,-0.01,-0.0111,-0.0119,-0.0135,-0.0136,-0.0133,-0.0125,-0.0146,-0.0142,-0.0139,-0.0179,-0.0179,-0.0179,0,0,0.013,0.0119,0.0138,0.0131,0.0122,0.0107,0.011,0.0089,0.0077,0.0059,0.0024,-0.0001,-0.0047,-0.0073,-0.0093,-0.0088,-0.0116,-0.0101,-0.0065,-0.0084,-0.0081,-0.0078,-0.009,-0.0089,-0.0098,-0.0098,-0.0098,0,0.0137,0.0151,0.0139,0.0152,0.0149,0.012,0.0133,0.0116,0.0087,0.0081,0.0064,0.0004,-0.0032,-0.0054,-0.0055,-0.0078,-0.0092,-0.0075,-0.0077,-0.0075,-0.0073,-0.0087,-0.0086,-0.0095,-0.0095,-0.0096,-0.0096,0,0.0176,0.0179,0.0189,0.0198,0.0191,0.0196,0.0176,0.0169,0.0149,0.013,0.0107,0.0057,0.0025,0.0006,-0.0025,-0.0032,-0.0046,-0.0069,-0.0083,-0.0066,-0.0082,-0.0082,-0.0091,-0.0092,-0.0093,-0.0094,0,0,0.0216,0.0218,0.0222,0.0226,0.0215,0.0216,0.0215,0.0207,0.0214,0.0177,0.0179,0.0123,0.01,0.0076,0.0035,0.0015,0.0012,-0.0017,-0.0019,-0.0018,-0.0024,-0.0014,-0.0014,-0.0011,-0.0011,-0.001,-0.0038,0,0.0251,0.0283,0.0272,0.0289,0.0299,0.0272,0.0276,0.0263,0.0245,0.024,0.0192,0.0174,0.0125,0.0113,0.0087,0.0031,0.0012,0.0021,-0.005,-0.0051,-0.0036,-0.0014,-0.0044,-0.0068,-0.0039,-0.0039,-0.0039,0,0.0304,0.0308,0.0338,0.0333,0.0338,0.0344,0.0346,0.0345,0.0329,0.0316,0.0292,0.0252,0.0218,0.0173,0.01,0.0109,0.0051,0.0005,0.0003,-0.0007,-0.0043,-0.0083,-0.0071,-0.004,-0.004,-0.004,-0.004,0,0.0348,0.0358,0.0381,0.038,0.0373,0.0382,0.038,0.0373,0.0384,0.0368,0.0377,0.0322,0.0304,0.0226,0.0134,0.0116,0.0057,0.0018,-0.0028,-0.0028,-0.0076,-0.008,-0.0031,-0.0031,-0.0031,-0.0031,-0.0031,0,0.0395,0.041,0.0405,0.0413,0.0439,0.0423,0.0455,0.0448,0.0454,0.0484,0.0423,0.0438,0.0317,0.0266,0.0167,0.0082,0.0083,-0.001,-0.003,-0.0056,-0.0058,-0.0056,-0.0058,-0.0032,-0.0032,-0.0032,-0.0032,0,0.0441,0.0442,0.0458,0.0454,0.0461,0.048,0.0502,0.0527,0.0529,0.0569,0.0568,0.0529,0.0473,0.0353,0.0234,0.0139,0.0043,0.0008,-0.0007,-0.0028,-0.0041,-0.004,-0.0045,-0.0045,-0.0045,-0.0045,-0.0044,0,0.047,0.0484,0.0491,0.0505,0.0505,0.0531,0.0557,0.0565,0.0598,0.0634,0.0661,0.0624,0.061,0.0447,0.0262,0.0101,0.008,-0.0026,-0.0067,-0.002,-0.004,-0.004,-0.0039,-0.0114,-0.0115,-0.0115,-0.0116,0,0.0499,0.0503,0.051,0.0547,0.0574,0.0607,0.0645,0.0684,0.0712,0.0747,0.0805,0.08,0.0657,0.0478,0.0254,0.0138,-0.0004,-0.0037,0.0012,-0.0095,-0.0085,-0.0105,-0.0102,-0.0119,-0.0119,-0.0118,-0.0118,-0.0118,0.0519,0.053,0.0547,0.0584,0.062,0.0677,0.0708,0.0724,0.078,0.0778,0.0848,0.0785,0.0664,0.0327,0.0181,-0.001,0.0002,-0.0097,-0.0096,-0.0095,-0.0087,-0.0076,-0.0107,-0.0107,-0.0106,-0.0106,-0.0106,0,0.0523,0.0554,0.0584,0.0625,0.0646,0.069,0.0762,0.0724,0.0744,0.0746,0.0744,0.0592,0.0443,0.0296,0.0007,-0.0118,-0.0149,-0.0162,-0.0185,-0.0181,-0.0177,-0.0174,-0.0217,-0.0217,-0.0218,-0.0218,0,0,0.0527,0.0549,0.0563,0.0613,0.0664,0.0657,0.0694,0.0642,0.0604,0.0543,0.0506,0.0497,0.0417,0.019,0.0041,-0.0106,-0.0127,-0.014,-0.0043,-0.0051,-0.0047,-0.0135,-0.0124,0,0,0,0,0]}],[{"header":{"parameterUnit":"m.s-1","parameterCategory":2,"la1":30.2991,"la2":30.254,"lo1":-89.0895,"lo2":-89.0444,"dy":0.0017,"dx":0.0017,"nx":28,"ny":28,"refTime":"2024-04-27T09:00:00:Z","depth":"4","parameterNumber":2,"parameterNumberName":"U-component_of_CURRENTS"},"data":[0,0,0,0,0,0,0,0,0,0,0,0,0,0,0,0,0,0,0,0,0,0,0,0,0,0,0,0,0,0,0,0,0,0,0,0,0,0,0,0,0,0,0,0,0,0,0,0,0,0,0,0,0,0,0,0,0,0,0.148,0.148,0,0.1546,0.1547,0.1547,0.1606,0.1607,0.1607,0.1608,0.1698,0.1699,0.1701,0,0,0,0,0,0,0,0,0,0,0,0,0,0.1416,0.1416,0.148,0.1481,0.1481,0.1546,0.1547,0.1548,0.1606,0.1607,0.1607,0.1608,0.1697,0.1699,0.1701,0,0,0,0,0,0,0,0,0,0,0,0,0,0.1458,0.1417,0.148,0.1518,0.1523,0.1546,0.1547,0.1548,0.1606,0.1607,0.1608,0.1609,0.1696,0.1699,0.1702,0.1696,0,0,0.1709,0.1711,0,0,0,0,0,0,0,0,0.1456,0.1461,0.1512,0.1516,0.152,0.1569,0.1557,0.1599,0.1605,0.1574,0.1608,0.1609,0.1656,0.1662,0.1672,0.1701,0.1704,0.171,0.1711,0.1712,0.1713,0,0,0,0,0,0,0,0.1453,0.1458,0.1506,0.1513,0.1518,0.1537,0.1544,0.1565,0.1608,0.1577,0.1581,0.1589,0.1659,0.1669,0.1674,0.1706,0.171,0.1712,0.1714,0.1715,0.1835,0.1837,0,0,0,0,0,0,0.1444,0.1455,0.1504,0.1508,0.149,0.1537,0.1545,0.1552,0.1608,0.1617,0.1588,0.1591,0.1664,0.1671,0.1678,0.1765,0.1712,0.1715,0.1716,0.1833,0.1835,0.1837,0,0,0,0,0,0,0.1442,0.1447,0.1501,0.1483,0.1492,0.1537,0.1545,0.1553,0.1596,0.1616,0.1626,0.1626,0.1665,0.1674,0.1729,0.1765,0.1716,0.1718,0.1832,0.1834,0.1836,0.1881,0,0,0,0,0,0,0.144,0.1446,0.1468,0.1482,0.1492,0.1539,0.1544,0.1553,0.1597,0.1603,0.1651,0.1659,0.1667,0.1725,0.1732,0.1768,0.172,0.1829,0.1833,0.1836,0.1877,0.1885,0.1891,0,0,0,0,0,0.1437,0.1457,0.1469,0.1476,0.1514,0.154,0.1548,0.1582,0.1598,0.1624,0.1659,0.1659,0.175,0.1729,0.1736,0.1774,0.1828,0.1832,0.1835,0.1874,0.1883,0.1891,0,0,0,0,0,0,0.145,0.1465,0.1479,0.1506,0.1533,0.1551,0.1583,0.1599,0.1645,0.1662,0.1678,0.1689,0.1752,0.1756,0.1732,0.1818,0.179,0.1795,0.1817,0.1825,0.1832,0.1825,0.1722,0,0,0,0,0,0.1459,0.1477,0.1495,0.1523,0.1538,0.1565,0.1588,0.1609,0.164,0.1663,0.1697,0.1733,0.1766,0.1791,0.1821,0.1865,0.1865,0.1895,0.1901,0.1907,0.1907,0.194,0.1949,0.1849,0.1849,0.1849,0,0,0.1467,0.1485,0.1494,0.1528,0.1553,0.158,0.1583,0.1625,0.1656,0.1664,0.1735,0.1762,0.1784,0.1838,0.1866,0.185,0.1937,0.1912,0.1916,0.1913,0.1945,0.1954,0.1963,0.1852,0.1851,0.1851,0,0,0.1488,0.1515,0.1534,0.156,0.1602,0.1616,0.1633,0.167,0.1703,0.1758,0.1776,0.1824,0.1879,0.19,0.1914,0.1974,0.1973,0.1993,0.2021,0.2054,0.2062,0.2069,0.2083,0.2091,0.1995,0.1995,0.1995,0,0.15,0.1531,0.1548,0.1578,0.1605,0.1633,0.1664,0.1695,0.1751,0.1778,0.1792,0.188,0.1904,0.1954,0.198,0.1989,0.2003,0.1987,0.2061,0.2068,0.2075,0.2088,0.2096,0.1997,0.1997,0.1997,0.1996,0,0.1523,0.1567,0.1585,0.1627,0.1657,0.1693,0.1726,0.1772,0.1812,0.1838,0.1913,0.1947,0.1996,0.2015,0.2018,0.208,0.2074,0.2067,0.2037,0.2087,0.2098,0.2106,0.2001,0.2,0.1999,0.1999,0,0,0.1496,0.1581,0.1593,0.1626,0.1688,0.1706,0.1768,0.1817,0.1855,0.1919,0.1969,0.2033,0.2056,0.2074,0.2091,0.2119,0.2179,0.2119,0.2119,0.2125,0.2249,0.2111,0.2106,0.2192,0.2194,0.2195,0.2237,0,0.1512,0.1576,0.1615,0.1679,0.1712,0.176,0.1807,0.1858,0.1908,0.1965,0.2009,0.2065,0.2076,0.2108,0.2143,0.2173,0.2203,0.2168,0.2205,0.2205,0.2071,0.2111,0.22,0.2243,0.2244,0.2246,0.2247,0,0.1515,0.1563,0.163,0.1707,0.1724,0.1767,0.1839,0.1887,0.1963,0.2004,0.2068,0.2101,0.2166,0.2162,0.2241,0.2223,0.2245,0.2257,0.2259,0.2117,0.2081,0.2183,0.226,0.2259,0.2258,0.2257,0.2256,0,0.1478,0.1567,0.1623,0.1652,0.174,0.1783,0.1831,0.1907,0.1946,0.2035,0.2072,0.2148,0.2196,0.2241,0.2282,0.2273,0.235,0.2336,0.2228,0.2219,0.231,0.2302,0.2386,0.2386,0.2386,0.2386,0.2386,0,0.1466,0.1516,0.1616,0.1648,0.1705,0.1773,0.1836,0.1893,0.1972,0.2011,0.2095,0.2128,0.2223,0.2274,0.2299,0.2283,0.2369,0.2233,0.2221,0.2329,0.2322,0.2316,0.2307,0.2387,0.2387,0.2387,0.2386,0,0.1425,0.1495,0.1562,0.1664,0.1696,0.1738,0.1832,0.1867,0.1957,0.2012,0.2042,0.2138,0.2198,0.2267,0.2336,0.2288,0.2294,0.2269,0.2379,0.2373,0.2136,0.213,0.214,0.2136,0.2132,0.2129,0.2126,0,0.1411,0.1445,0.156,0.1593,0.1649,0.1719,0.1759,0.1853,0.1883,0.1993,0.2003,0.2097,0.2149,0.2127,0.2219,0.2247,0.2231,0.2212,0.2168,0.2124,0.2112,0.2112,0.211,0.212,0.2119,0.2118,0.2117,0,0.1379,0.1434,0.1486,0.1556,0.161,0.165,0.1716,0.1721,0.1817,0.191,0.1904,0.1926,0.1988,0.2032,0.2072,0.2091,0.2207,0.2171,0.2179,0.2138,0.21,0.2092,0.2095,0.2104,0.2106,0.2107,0.2108,0,0.1357,0.1377,0.145,0.149,0.1557,0.1565,0.1605,0.1623,0.1656,0.1764,0.1758,0.1859,0.1954,0.1952,0.199,0.1997,0.1971,0.1902,0.1923,0.1939,0.1857,0.1778,0.1671,0,0,0,0,0,0.1323,0.1328,0.1371,0.1407,0.1467,0.1496,0.1565,0.1602,0.1686,0.1633,0.1684,0.1724,0.1754,0.1811,0.1782,0.1937,0.2004,0.1897,0.1942,0.203,0.2046,0.1969,0,0,0,0,0,0,0.1299,0.1341,0.1343,0.1328,0.133,0.1374,0.1412,0.1467,0.1436,0.1527,0.1553,0.162,0.1687,0.1752,0.1748,0.1769,0.1763,0.1963,0.1959,0.2022,0.2036,0.2048,0.1975,0,0,0,0,0]},{"header":{"parameterUnit":"m.s-1","parameterCategory":2,"la1":30.2991,"la2":30.254,"lo1":-89.0895,"lo2":-89.0444,"dy":0.0017,"dx":0.0017,"nx":28,"ny":28,"refTime":"2024-04-27T09:00:00:Z","depth":"4","parameterNumber":3,"parameterNumberName":"V-component_of_CURRENTS"},"data":[0,0,0,0,0,0,0,0,0,0,0,0,0,0,0,0,0,0,0,0,0,0,0,0,0,0,0,0,0,0,0,0,0,0,0,0,0,0,0,0,0,0,0,0,0,0,0,0,0,0,0,0,0,0,0,0,0,0,-0.0047,-0.0047,0,-0.0074,-0.0074,-0.0074,-0.01,-0.01,-0.0101,-0.0101,-0.0152,-0.0153,-0.0154,0,0,0,0,0,0,0,0,0,0,0,0,0,-0.0044,-0.0044,-0.0047,-0.0047,-0.0048,-0.0074,-0.0074,-0.0074,-0.01,-0.01,-0.0101,-0.0101,-0.0151,-0.0152,-0.0154,0,0,0,0,0,0,0,0,0,0,0,0,0,-0.0055,-0.0044,-0.0047,-0.0064,-0.0066,-0.0074,-0.0074,-0.0074,-0.01,-0.01,-0.0101,-0.0101,-0.0151,-0.0152,-0.0154,-0.0153,0,0,-0.0159,-0.0159,0,0,0,0,0,0,0,0,-0.0054,-0.0055,-0.0061,-0.0063,-0.0065,-0.0084,-0.0091,-0.0102,-0.01,-0.0086,-0.0101,-0.0102,-0.0131,-0.0134,-0.0137,-0.0155,-0.0157,-0.0159,-0.016,-0.016,-0.0161,0,0,0,0,0,0,0,-0.0053,-0.0054,-0.0057,-0.0061,-0.0063,-0.0079,-0.0081,-0.0094,-0.0106,-0.0088,-0.009,-0.0093,-0.0132,-0.0136,-0.0139,-0.0158,-0.0159,-0.016,-0.0161,-0.0162,-0.0194,-0.0194,0,0,0,0,0,0,-0.0049,-0.0053,-0.0056,-0.0058,-0.0061,-0.0078,-0.0081,-0.0077,-0.0105,-0.011,-0.0092,-0.0094,-0.0133,-0.0137,-0.0141,-0.0146,-0.016,-0.0162,-0.0163,-0.0194,-0.0194,-0.0194,0,0,0,0,0,0,-0.0048,-0.0048,-0.0055,-0.0057,-0.0059,-0.0078,-0.0074,-0.0077,-0.0083,-0.0108,-0.0114,-0.0095,-0.0133,-0.0139,-0.0153,-0.0148,-0.0162,-0.0164,-0.0194,-0.0194,-0.0194,-0.0153,0,0,0,0,0,0,-0.0048,-0.0048,-0.0042,-0.0056,-0.0059,-0.0054,-0.0074,-0.0078,-0.0084,-0.0087,-0.0112,-0.0117,-0.0134,-0.0151,-0.0155,-0.015,-0.0165,-0.0194,-0.0194,-0.0194,-0.0154,-0.0151,-0.0149,0,0,0,0,0,-0.0048,-0.0032,-0.0042,-0.0042,-0.0051,-0.0054,-0.0056,-0.0072,-0.0084,-0.008,-0.0102,-0.0117,-0.0153,-0.0152,-0.0156,-0.0152,-0.0194,-0.0194,-0.0194,-0.0155,-0.0152,-0.0149,0,0,0,0,0,0,-0.0024,-0.0034,-0.0045,-0.0032,-0.0042,-0.0058,-0.0055,-0.0069,-0.0083,-0.0087,-0.0114,-0.012,-0.0132,-0.0148,-0.0146,-0.0162,-0.0177,-0.0177,-0.0146,-0.0143,-0.014,-0.013,-0.0166,0,0,0,0,0,-0.0018,-0.0012,-0.0026,-0.0017,-0.002,-0.0039,-0.0042,-0.0054,-0.0069,-0.0075,-0.0094,-0.0116,-0.0134,-0.0143,-0.016,-0.0166,-0.0182,-0.0168,-0.0165,-0.0162,-0.0159,-0.0178,-0.0176,-0.0193,-0.0193,-0.0193,0,0,-0.0007,-0.0011,-0.0009,-0.0012,-0.0021,-0.002,-0.0042,-0.0043,-0.0045,-0.0078,-0.0085,-0.0107,-0.0134,-0.0143,-0.0149,-0.0156,-0.0166,-0.0162,-0.016,-0.0157,-0.0177,-0.0176,-0.0174,-0.0193,-0.0193,-0.0193,0,0,0.0016,0.0014,0.0024,0.0019,0.0008,-0.0003,-0.0003,-0.0018,-0.0027,-0.0036,-0.0063,-0.0082,-0.0104,-0.0124,-0.0137,-0.013,-0.0152,-0.0136,-0.0113,-0.0131,-0.013,-0.0129,-0.0144,-0.0145,-0.0133,-0.0133,-0.0133,0,0.0026,0.0036,0.0026,0.0033,0.0029,0.0006,0.0012,0.0004,-0.0016,-0.0022,-0.0033,-0.0071,-0.0095,-0.0111,-0.011,-0.0123,-0.0135,-0.0121,-0.0127,-0.0126,-0.0126,-0.0142,-0.0143,-0.0131,-0.0132,-0.0132,-0.0132,0,0.0054,0.0059,0.0066,0.0064,0.0062,0.0065,0.0049,0.0046,0.003,0.0016,-0.0,-0.0032,-0.0055,-0.0067,-0.0087,-0.0096,-0.0106,-0.0121,-0.0132,-0.0121,-0.0139,-0.0141,-0.0128,-0.0129,-0.013,-0.013,0,0,0.0078,0.0082,0.0084,0.0084,0.0076,0.0077,0.0079,0.007,0.0072,0.005,0.0048,0.0012,-0.0006,-0.0022,-0.005,-0.0068,-0.0079,-0.0089,-0.0091,-0.0098,-0.0115,-0.0118,-0.0121,-0.0092,-0.0092,-0.0092,-0.0128,0,0.0096,0.0113,0.0112,0.0123,0.0125,0.0111,0.0117,0.0108,0.0096,0.0091,0.0056,0.0044,0.0012,0.0003,-0.002,-0.0063,-0.0083,-0.0068,-0.013,-0.0131,-0.0131,-0.0123,-0.0093,-0.0129,-0.013,-0.013,-0.013,0,0.0119,0.0124,0.0141,0.0144,0.0146,0.0153,0.0153,0.0157,0.0146,0.0138,0.012,0.0094,0.0066,0.0037,-0.0026,-0.0013,-0.006,-0.0096,-0.0098,-0.0116,-0.0138,-0.0145,-0.0134,-0.0134,-0.0134,-0.0133,-0.0133,0,0.0132,0.0144,0.0157,0.0159,0.0162,0.017,0.0173,0.0171,0.0181,0.0171,0.0177,0.0136,0.0123,0.0061,-0.001,-0.0017,-0.0078,-0.01,-0.0148,-0.0149,-0.0154,-0.0155,-0.0148,-0.0148,-0.0148,-0.0147,-0.0147,0,0.0146,0.0156,0.0166,0.0171,0.019,0.0189,0.021,0.0211,0.0221,0.0239,0.0206,0.0209,0.013,0.0085,0.0009,-0.0068,-0.0065,-0.0141,-0.0157,-0.0137,-0.0135,-0.0156,-0.0156,-0.0149,-0.0149,-0.0148,-0.0148,0,0.0154,0.0163,0.0175,0.0186,0.0196,0.0209,0.0238,0.0254,0.0266,0.029,0.0291,0.0268,0.0214,0.013,0.0033,-0.0035,-0.0117,-0.0149,-0.0111,-0.0125,-0.0182,-0.018,-0.0205,-0.0206,-0.0206,-0.0206,-0.0206,0,0.0158,0.0166,0.0187,0.0199,0.0206,0.023,0.0251,0.0273,0.0294,0.0324,0.0335,0.0306,0.0274,0.0147,0.0051,-0.0087,-0.0116,-0.0163,-0.0184,-0.0173,-0.0187,-0.0185,-0.0182,-0.0207,-0.0207,-0.0207,-0.0207,0,0.0153,0.0163,0.0172,0.0201,0.0225,0.0255,0.0287,0.0308,0.034,0.036,0.0371,0.0314,0.0258,0.0154,0.0053,-0.0051,-0.0134,-0.0167,-0.0167,-0.0187,-0.0176,-0.0188,-0.0186,-0.0208,-0.0208,-0.0208,-0.0208,0,0.0147,0.0149,0.0165,0.0188,0.0224,0.0258,0.0282,0.0312,0.034,0.0378,0.0383,0.033,0.0308,0.0173,0.0078,-0.0018,-0.0056,-0.0108,-0.0112,-0.0112,-0.008,-0.0051,-0.0054,0,0,0,0,0,0.0131,0.0126,0.0149,0.0168,0.0208,0.0226,0.0293,0.0319,0.0361,0.0371,0.0379,0.0328,0.0212,0.017,0.0072,0.0049,-0.0088,-0.0072,-0.0154,-0.0214,-0.0213,-0.0191,0,0,0,0,0,0,0.0114,0.0126,0.0133,0.0149,0.0158,0.02,0.024,0.0277,0.0288,0.0326,0.0273,0.0272,0.0162,0.0254,0.0054,0.0029,-0.0042,-0.0116,-0.0119,-0.0215,-0.0214,-0.0213,-0.019,0,0,0,0,0]}]]